CW8839 Weather Reports


Display with metric or nautical units.
time (UTC)temp
F
wind
direction
speed
MPH
gust
MPH
rain 1hr
in
rain 24hr
in
rain mn
in
humidity
%
barometer
mb
20260509223922 64 317 5.0 12.0 0.00 0.22 0.22 58 1008.6
20260509223435 64 248 3.0 12.0 0.00 0.22 0.22 61 1008.6
20260509222926 64 188 5.0 10.0 0.00 0.22 0.22 62 1008.7
20260509222457 65 231 6.0 9.0 0.00 0.22 0.22 62 1008.7
20260509221928 65 191 3.0 12.0 0.00 0.22 0.22 66 1008.7
20260509221420 65 211 5.0 12.0 0.00 0.22 0.22 61 1008.7
20260509220927 66 210 6.0 16.0 0.00 0.22 0.22 56 1008.7
20260509220420 66 255 6.0 16.0 0.00 0.22 0.22 55 1008.6
20260509215947 66 184 3.0 10.0 0.00 0.22 0.22 61 1008.5
20260509215418 67 137 4.0 8.0 0.00 0.22 0.22 55 1008.6
20260509214929 67 212 5.0 12.0 0.00 0.22 0.22 56 1008.7
20260509214440 66 193 5.0 12.0 0.00 0.22 0.22 55 1008.9
20260509213952 66 202 5.0 17.0 0.00 0.22 0.22 57 1008.8
20260509213418 66 192 6.0 17.0 0.00 0.22 0.22 58 1008.8
20260509212930 66 200 7.0 12.0 0.00 0.22 0.22 53 1008.9
20260509212440 67 257 4.0 11.0 0.00 0.22 0.22 57 1008.8
20260509211930 67 157 4.0 11.0 0.00 0.22 0.22 59 1008.8
20260509211422 66 256 6.0 15.0 0.00 0.22 0.22 57 1008.6
20260509210933 67 169 5.0 15.0 0.00 0.22 0.22 56 1008.7
20260509210426 67 263 4.0 18.0 0.00 0.22 0.22 55 1008.7
20260509205932 67 185 5.0 18.0 0.00 0.22 0.22 53 1008.8
20260509205418 66 180 9.0 17.0 0.00 0.22 0.22 59 1008.8
20260509204930 66 211 9.0 14.0 0.00 0.22 0.22 55 1008.9
20260509204422 67 122 6.0 12.0 0.00 0.22 0.22 57 1008.8
20260509203932 67 59 3.0 7.0 0.00 0.22 0.22 58 1008.9
20260509203423 65 329 1.0 7.0 0.00 0.22 0.22 59 1009.0
20260509202935 65 225 3.0 11.0 0.00 0.22 0.22 61 1008.9
20260509202428 66 257 4.0 12.0 0.00 0.22 0.22 58 1009.0
20260509201937 65 306 6.0 13.0 0.00 0.22 0.22 60 1009.1
20260509201423 66 279 4.0 18.0 0.00 0.22 0.22 59 1009.1
20260509200934 66 156 8.0 18.0 0.00 0.22 0.22 60 1009.0
20260509200423 66 153 6.0 10.0 0.00 0.22 0.22 61 1009.1
20260509195929 65 216 4.0 11.0 0.00 0.22 0.22 62 1009.2
20260509195422 64 79 5.0 11.0 0.00 0.22 0.22 60 1009.4
20260509194934 64 242 3.0 10.0 0.00 0.22 0.22 61 1009.4
20260509194423 64 180 2.0 9.0 0.00 0.22 0.22 64 1009.4
20260509193933 65 208 4.0 10.0 0.00 0.22 0.22 61 1009.5
20260509193424 64 257 3.0 7.0 0.00 0.22 0.22 67 1009.7
20260509192950 63 300 4.0 6.0 0.00 0.22 0.22 66 1009.7
20260509192420 64 299 1.0 6.0 0.00 0.22 0.22 68 1009.8
20260509191930 63 343 2.0 6.0 0.00 0.22 0.22 68 1009.8
20260509191420 62 169 2.0 9.0 0.00 0.22 0.22 71 1009.9
20260509190952 62 192 2.0 9.0 0.00 0.22 0.22 68 1009.9
20260509190423 62 194 4.0 8.0 0.00 0.22 0.22 68 1010.0
20260509185931 62 148 4.0 9.0 0.00 0.22 0.22 68 1010.0
20260509185419 62 171 4.0 8.0 0.00 0.22 0.22 70 1010.1
20260509184930 62 319 2.0 7.0 0.00 0.22 0.22 72 1010.0
20260509184442 62 342 1.0 10.0 0.00 0.22 0.22 71 1010.1
20260509183932 62 323 3.0 10.0 0.00 0.22 0.22 69 1010.1
20260509183423 63 284 2.0 10.0 0.00 0.22 0.22 74 1010.1
20260509182933 62 208 5.0 10.0 0.00 0.22 0.22 68 1010.1
20260509182424 62 128 7.0 10.0 0.00 0.22 0.22 67 1010.1
20260509181949 62 198 5.0 15.0 0.00 0.22 0.22 67 1010.1
20260509181440 61 309 6.0 15.0 0.00 0.22 0.22 71 1010.2
20260509180931 62 171 4.0 11.0 0.00 0.22 0.22 71 1010.2
20260509180442 61 134 3.0 8.0 0.00 0.22 0.22 72 1010.2
20260509175917 60 192 4.0 8.0 0.00 0.22 0.22 73 1010.3
20260509175427 60 146 4.0 8.0 0.00 0.22 0.22 76 1010.3
20260509174919 60 213 3.0 10.0 0.00 0.22 0.22 77 1010.3
20260509174449 59 153 4.0 10.0 0.00 0.22 0.22 76 1010.3
20260509173935 59 143 7.0 15.0 0.00 0.22 0.22 75 1010.4
20260509173427 58 131 6.0 15.0 0.00 0.22 0.22 78 1010.3
20260509172918 58 159 5.0 10.0 0.00 0.22 0.22 77 1010.3
20260509172447 58 238 5.0 10.0 0.00 0.22 0.22 79 1010.2
20260509171956 58 139 2.0 10.0 0.00 0.22 0.22 79 1010.1
20260509171427 59 190 6.0 16.0 0.00 0.22 0.22 80 1010.1
20260509170918 58 186 8.0 16.0 0.00 0.22 0.22 84 1010.0
20260509170424 58 126 4.0 14.0 0.00 0.22 0.22 81 1010.0
20260509165924 57 231 4.0 10.0 0.00 0.22 0.22 84 1010.1
20260509165432 57 148 3.0 8.0 0.01 0.22 0.22 86 1010.0
20260509164923 56 161 3.0 9.0 0.01 0.22 0.22 89 1009.9
20260509164435 55 142 5.0 9.0 0.01 0.22 0.22 90 1009.9
20260509163926 55 153 5.0 8.0 0.01 0.22 0.22 89 1009.9
20260509163419 55 171 4.0 8.0 0.01 0.22 0.22 89 1010.0
20260509162929 55 182 4.0 8.0 0.01 0.22 0.22 90 1010.1
20260509162456 55 161 3.0 7.0 0.01 0.22 0.22 90 1010.1
20260509161926 54 161 3.0 7.0 0.01 0.22 0.22 91 1010.0
20260509161419 54 195 3.0 5.0 0.01 0.22 0.22 90 1010.0
20260509160930 54 172 1.0 7.0 0.01 0.22 0.22 90 1009.9
20260509160419 54 175 3.0 8.0 0.01 0.22 0.22 90 1009.9
20260509155923 54 152 3.0 8.0 0.01 0.22 0.22 89 1010.0
20260509155446 54 165 4.0 8.0 0.00 0.21 0.21 89 1010.1
20260509154917 54 160 2.0 7.0 0.00 0.21 0.21 89 1010.0
20260509154425 54 163 4.0 10.0 0.00 0.21 0.21 89 1010.1
20260509153955 54 153 6.0 10.0 0.00 0.21 0.21 88 1010.1
20260509153427 55 360 4.0 14.0 0.00 0.21 0.21 89 1010.0
20260509152918 55 360 8.0 14.0 0.00 0.21 0.21 89 1010.0
20260509152429 55 157 5.0 12.0 0.00 0.21 0.21 89 1010.0
20260509151938 55 166 5.0 10.0 0.00 0.21 0.21 90 1009.9
20260509151423 55 151 5.0 11.0 0.00 0.21 0.21 91 1009.9
20260509150932 55 122 3.0 11.0 0.01 0.21 0.21 92 1010.0
20260509150442 54 151 6.0 11.0 0.01 0.21 0.21 94 1010.1
20260509145936 53 168 5.0 9.0 0.01 0.21 0.21 94 1010.2
20260509145425 53 123 3.0 6.0 0.01 0.21 0.21 94 1010.3
20260509144917 52 161 3.0 6.0 0.01 0.21 0.21 94 1010.4
20260509144426 52 182 2.0 7.0 0.01 0.21 0.21 94 1010.5
20260509143917 52 180 3.0 7.0 0.01 0.21 0.21 94 1010.5
20260509143424 52 189 3.0 7.0 0.01 0.21 0.21 94 1010.5
20260509142935 52 162 4.0 7.0 0.02 0.21 0.21 94 1010.4
20260509142426 52 183 3.0 5.0 0.02 0.21 0.21 94 1010.4
20260509141937 52 170 3.0 10.0 0.02 0.21 0.21 94 1010.5
20260509141426 52 147 3.0 10.0 0.03 0.21 0.21 94 1010.5
20260509140938 52 132 2.0 9.0 0.02 0.20 0.20 94 1010.5
20260509140428 51 138 2.0 9.0 0.02 0.20 0.20 94 1010.6
20260509135931 51 156 2.0 14.0 0.02 0.20 0.20 94 1010.6
20260509135439 51 144 4.0 14.0 0.03 0.20 0.20 94 1010.6
20260509134929 51 180 3.0 9.0 0.03 0.20 0.20 94 1010.6
20260509134420 51 125 5.0 9.0 0.04 0.20 0.20 94 1010.7
20260509133932 51 215 2.0 6.0 0.04 0.20 0.20 94 1010.7
20260509133422 51 167 3.0 6.0 0.05 0.20 0.20 95 1010.8
20260509132931 51 202 1.0 5.0 0.05 0.19 0.19 94 1010.7
20260509132422 51 165 2.0 7.0 0.05 0.19 0.19 94 1010.7
20260509131929 51 167 3.0 7.0 0.05 0.19 0.19 95 1010.7
20260509131422 51 152 2.0 8.0 0.05 0.18 0.18 95 1010.7
20260509130932 51 155 4.0 8.0 0.06 0.18 0.18 95 1010.7
20260509130423 51 180 3.0 7.0 0.06 0.18 0.18 95 1010.8
20260509125929 51 153 3.0 6.0 0.07 0.18 0.18 95 1010.8
20260509125421 51 127 2.0 8.0 0.07 0.17 0.17 95 1010.8
20260509124934 51 142 4.0 8.0 0.07 0.17 0.17 95 1010.8
20260509124423 50 200 3.0 6.0 0.07 0.16 0.16 95 1010.9
20260509123936 50 140 2.0 4.0 0.07 0.16 0.16 95 1010.8
20260509123424 50 150 2.0 6.0 0.07 0.15 0.15 95 1010.9
20260509122933 50 142 3.0 6.0 0.06 0.14 0.14 95 1010.9
20260509122425 50 104 4.0 7.0 0.06 0.14 0.14 95 1010.9
20260509121932 50 192 2.0 10.0 0.07 0.14 0.14 95 1010.9
20260509121444 50 198 4.0 10.0 0.07 0.13 0.13 95 1010.9
20260509120934 50 148 2.0 7.0 0.06 0.12 0.12 95 1010.9
20260509120447 50 170 2.0 7.0 0.06 0.12 0.12 95 1010.9
20260509115929 50 215 3.0 7.0 0.05 0.11 0.11 94 1010.9
20260509115420 50 192 3.0 7.0 0.04 0.10 0.10 94 1010.9
20260509114931 50 172 3.0 8.0 0.04 0.10 0.10 94 1010.9
20260509114441 50 163 2.0 6.0 0.03 0.09 0.09 94 1010.8
20260509113929 50 240 4.0 10.0 0.02 0.08 0.08 94 1010.8
20260509113421 50 150 4.0 10.0 0.02 0.08 0.08 94 1010.7
20260509112931 50 142 3.0 7.0 0.02 0.08 0.08 94 1010.7
20260509112422 50 119 4.0 7.0 0.02 0.08 0.08 94 1010.8
20260509111928 50 163 2.0 6.0 0.01 0.07 0.07 94 1010.8
20260509111420 50 153 3.0 6.0 0.00 0.06 0.06 94 1010.7
20260509110931 50 152 2.0 6.0 0.00 0.06 0.06 94 1010.7
20260509110423 50 125 3.0 6.0 0.00 0.06 0.06 94 1010.7
20260509105929 49 128 2.0 4.0 0.00 0.06 0.06 93 1010.6
20260509105420 50 128 2.0 5.0 0.00 0.06 0.06 93 1010.6
20260509104932 50 136 2.0 7.0 0.01 0.06 0.06 93 1010.5
20260509104444 50 134 3.0 8.0 0.02 0.06 0.06 93 1010.5
20260509103929 50 126 3.0 8.0 0.02 0.06 0.06 93 1010.5
20260509103420 50 138 2.0 5.0 0.02 0.06 0.06 93 1010.5
20260509102931 50 138 3.0 5.0 0.02 0.06 0.06 93 1010.5
20260509102422 50 159 3.0 6.0 0.02 0.06 0.06 93 1010.5
20260509101934 50 142 3.0 5.0 0.03 0.06 0.06 93 1010.5
20260509101425 50 140 3.0 4.0 0.03 0.06 0.06 93 1010.5
20260509100936 50 161 3.0 7.0 0.03 0.06 0.06 92 1010.6
20260509100427 50 132 3.0 7.0 0.04 0.06 0.06 92 1010.6
20260509095926 50 149 2.0 5.0 0.04 0.06 0.06 92 1010.6
20260509095418 50 153 2.0 5.0 0.04 0.06 0.06 92 1010.7
20260509094928 50 149 2.0 5.0 0.03 0.05 0.05 92 1010.7
20260509094418 50 142 3.0 7.0 0.02 0.04 0.04 91 1010.8
20260509093932 50 135 3.0 7.0 0.02 0.04 0.04 91 1010.8
20260509093421 50 149 3.0 7.0 0.03 0.04 0.04 91 1010.9
20260509092934 50 105 3.0 7.0 0.03 0.04 0.04 91 1010.9
20260509092424 50 182 3.0 8.0 0.02 0.03 0.03 91 1010.9
20260509091935 50 183 4.0 10.0 0.03 0.03 0.03 91 1010.9
20260509091423 50 202 4.0 10.0 0.03 0.03 0.03 91 1011.0
20260509090934 50 153 3.0 10.0 0.03 0.03 0.03 91 1011.0
20260509090426 50 138 4.0 10.0 0.02 0.02 0.02 91 1011.1
20260509085933 50 151 5.0 7.0 0.02 0.02 0.02 91 1011.2
20260509085425 50 178 3.0 8.0 0.02 0.02 0.02 91 1011.2
20260509084936 50 259 3.0 8.0 0.02 0.02 0.02 90 1011.2
20260509084426 50 155 3.0 8.0 0.02 0.02 0.02 90 1011.3
20260509083939 50 153 4.0 6.0 0.02 0.02 0.02 90 1011.4
20260509083423 50 210 4.0 9.0 0.01 0.01 0.01 89 1011.5
20260509082934 50 268 3.0 9.0 0.01 0.01 0.01 89 1011.4
20260509082424 50 140 4.0 10.0 0.00 0.00 0.00 89 1011.4
20260509081935 50 148 4.0 10.0 0.00 0.00 0.00 89 1011.4
20260509081425 50 190 4.0 7.0 0.00 0.00 0.00 89 1011.4
20260509080916 50 250 3.0 6.0 0.00 0.00 0.00 90 1011.2
20260509080426 49 189 3.0 9.0 0.00 0.00 0.00 90 1011.3
20260509075950 49 154 2.0 10.0 0.00 0.00 0.00 92 1011.1
20260509075436 49 169 3.0 10.0 0.00 0.00 0.00 92 1011.0
20260509074926 49 294 3.0 10.0 0.00 0.00 0.00 92 1010.8
20260509074438 49 212 3.0 10.0 0.00 0.00 0.00 92 1010.7
20260509073926 49 342 1.0 3.0 0.00 0.00 0.00 92 1010.6
20260509073417 49 315 1.0 2.0 0.00 0.00 0.00 92 1010.5
20260509072931 49 315 1.0 2.0 0.00 0.00 0.00 92 1010.3
20260509072421 49 327 0.0 2.0 0.00 0.00 0.00 92 1010.1
20260509071932 49 327 0.0 1.0 0.00 0.00 0.00 92 1010.1
20260509071419 49 327 0.0 2.0 0.00 0.00 0.00 92 1010.0
20260509070930 49 327 0.0 2.0 0.00 0.00 0.00 92 1010.0
20260509070424 49 327 0.0 1.0 0.00 0.00 0.00 91 1009.9
20260509065927 49 327 0.0 1.0 0.00 0.00 0.00 91 1009.8
20260509065417 49 327 0.0 1.0 0.00 0.00 0.00 91 1009.8
20260509064929 49 327 0.0 2.0 0.00 0.00 0.00 91 1009.8
20260509064420 49 327 1.0 2.0 0.00 0.00 0.00 91 1009.8
20260509063931 49 327 0.0 1.0 0.00 0.00 0.00 91 1009.9
20260509063421 49 327 0.0 2.0 0.00 0.00 0.00 91 1009.9
20260509062929 49 327 1.0 2.0 0.00 0.00 0.00 91 1009.9
20260509062419 49 327 0.0 1.0 0.00 0.00 0.00 91 1010.0
20260509061932 49 327 1.0 1.0 0.00 0.00 0.00 91 1010.1
20260509061421 49 327 0.0 1.0 0.00 0.00 0.00 90 1010.2
20260509060931 49 327 0.0 1.0 0.00 0.00 0.00 90 1010.3
20260509060422 49 327 0.0 2.0 0.00 0.00 0.00 90 1010.4
20260509055929 49 327 0.0 2.0 0.00 0.00 0.00 91 1010.4
20260509055419 49 327 1.0 2.0 0.00 0.00 0.00 91 1010.5
20260509054947 49 327 0.0 2.0 0.00 0.00 0.00 91 1010.6
20260509054418 49 327 1.0 2.0 0.00 0.00 0.00 91 1010.7
20260509053927 49 327 1.0 2.0 0.00 0.00 0.00 91 1010.8
20260509053419 50 327 1.0 2.0 0.00 0.00 0.00 91 1010.8
20260509052930 50 327 0.0 1.0 0.00 0.00 0.00 90 1010.9
20260509052425 50 327 0.0 0.0 0.00 0.00 0.00 90 1010.8
20260509051917 50 327 0.0 1.0 0.00 0.00 0.00 90 1010.9
20260509051428 50 327 0.0 1.0 0.00 0.00 0.00 90 1011.0
20260509050933 50 327 0.0 1.0 0.00 0.00 0.00 90 1011.0
20260509050423 50 327 0.0 1.0 0.00 0.00 0.00 90 1011.1
20260509045949 50 327 0.0 1.0 0.00 0.00 0.00 90 1011.1
20260509045421 50 327 0.0 1.0 0.00 0.00 0.00 89 1011.0
20260509044933 50 327 0.0 2.0 0.00 0.00 0.00 89 1011.1
20260509044425 50 327 0.0 2.0 0.00 0.00 0.00 89 1011.0
20260509043917 50 327 1.0 2.0 0.00 0.00 0.00 89 1011.0
20260509043429 50 327 1.0 2.0 0.00 0.00 0.00 89 1011.1
20260509042938 50 327 0.0 2.0 0.00 0.00 0.00 89 1011.0
20260509042427 50 327 0.0 2.0 0.00 0.00 0.00 89 1011.0
20260509041920 51 327 0.0 4.0 0.00 0.00 0.00 89 1011.0
20260509041432 51 327 2.0 4.0 0.00 0.00 0.00 89 1011.1
20260509040943 51 309 0.0 1.0 0.00 0.00 0.00 89 1011.1
20260509040432 51 309 0.0 1.0 0.00 0.00 0.00 89 1011.2
20260509035932 51 309 0.0 1.0 0.00 0.00 0.00 89 1011.2
20260509035432 51 309 0.0 0.0 0.00 0.00 0.00 88 1011.2
20260509034923 51 309 0.0 0.0 0.00 0.00 0.00 88 1011.3
20260509034436 51 309 0.0 1.0 0.00 0.00 0.00 88 1011.4
20260509033946 51 309 0.0 1.0 0.00 0.00 0.00 88 1011.5
20260509033436 51 309 0.0 1.0 0.00 0.00 0.00 88 1011.7
20260509032927 52 309 0.0 1.0 0.00 0.00 0.00 88 1011.7
20260509032419 52 309 0.0 1.0 0.00 0.00 0.00 87 1011.8
20260509031929 52 309 0.0 1.0 0.00 0.00 0.00 87 1011.8
20260509031422 52 309 0.0 1.0 0.00 0.00 0.00 87 1011.9
20260509030930 52 309 0.0 1.0 0.00 0.00 0.00 87 1012.0
20260509030422 52 309 0.0 1.0 0.00 0.00 0.00 87 1012.0
20260509025924 52 310 0.0 1.0 0.00 0.00 0.00 87 1012.0
20260509025436 52 311 0.0 2.0 0.00 0.00 0.00 87 1012.1
20260509024928 52 311 0.0 4.0 0.00 0.00 0.00 86 1012.1
20260509024439 52 311 2.0 5.0 0.00 0.00 0.00 86 1012.2
20260509023929 52 290 2.0 5.0 0.00 0.00 0.00 86 1012.3
20260509023457 52 256 2.0 4.0 0.00 0.00 0.00 86 1012.4
20260509022928 53 272 0.0 1.0 0.00 0.00 0.00 86 1012.4
20260509022420 53 273 0.0 1.0 0.00 0.00 0.00 86 1012.3
20260509021931 53 273 1.0 2.0 0.00 0.00 0.00 86 1012.3
20260509021423 53 277 0.0 2.0 0.00 0.00 0.00 85 1012.2
20260509020956 53 276 1.0 2.0 0.00 0.00 0.00 85 1012.1
20260509020427 53 274 0.0 3.0 0.00 0.00 0.00 85 1012.1
20260509015935 53 274 1.0 3.0 0.00 0.00 0.00 84 1012.1
20260509015422 53 252 1.0 3.0 0.00 0.00 0.00 84 1012.1
20260509014934 53 253 1.0 3.0 0.00 0.00 0.00 84 1011.9
20260509014447 53 254 2.0 3.0 0.00 0.00 0.00 84 1011.8
20260509013917 53 252 0.0 1.0 0.00 0.00 0.00 83 1011.8
20260509013427 53 251 0.0 1.0 0.00 0.00 0.00 83 1011.7
20260509012921 53 252 0.0 1.0 0.00 0.00 0.00 83 1011.7
20260509012431 53 251 1.0 1.0 0.00 0.00 0.00 83 1011.7
20260509011922 53 252 1.0 2.0 0.00 0.00 0.00 82 1011.6
20260509011449 53 252 0.0 2.0 0.00 0.00 0.00 82 1011.4
20260509010919 53 251 1.0 2.0 0.00 0.00 0.00 82 1011.2
20260509010430 53 252 0.0 0.0 0.00 0.00 0.00 82 1011.2
20260509005956 53 252 0.0 0.0 0.00 0.00 0.00 82 1011.2
20260509005425 53 252 0.0 0.0 0.00 0.00 0.00 82 1011.1
20260509004918 53 254 0.0 0.0 0.00 0.00 0.00 83 1011.0
20260509004428 53 253 0.0 0.0 0.00 0.00 0.00 82 1011.0
20260509003917 53 253 0.0 0.0 0.00 0.00 0.00 83 1011.0
20260509003423 53 253 0.0 1.0 0.00 0.00 0.00 81 1011.0
20260509002934 54 253 0.0 1.0 0.00 0.00 0.00 81 1011.0
20260509002424 54 252 0.0 1.0 0.00 0.00 0.00 81 1011.0
20260509001934 54 252 0.0 1.0 0.00 0.00 0.00 81 1011.0
20260509001445 54 253 1.0 1.0 0.00 0.00 0.00 80 1011.0
20260509000933 54 252 0.0 0.0 0.00 0.00 0.00 80 1011.0
20260509000425 55 250 0.0 0.0 0.00 0.00 0.00 80 1011.0
20260508235925 55 250 0.0 2.0 0.00 0.00 0.00 79 1011.0
20260508235417 55 250 0.0 2.0 0.00 0.00 0.00 78 1010.9
20260508234928 55 250 1.0 2.0 0.00 0.00 0.00 77 1011.0
20260508234420 55 250 0.0 1.0 0.00 0.00 0.00 79 1011.0
20260508233931 55 251 0.0 2.0 0.00 0.00 0.00 79 1011.0
20260508233443 56 252 1.0 2.0 0.00 0.00 0.00 78 1011.1
20260508232934 56 259 1.0 1.0 0.00 0.00 0.00 77 1011.0
20260508232426 56 249 1.0 1.0 0.00 0.00 0.00 78 1010.9
20260508231953 56 248 0.0 3.0 0.00 0.00 0.00 76 1010.9
20260508231424 56 248 1.0 3.0 0.00 0.00 0.00 76 1010.8
20260508230933 56 248 0.0 3.0 0.00 0.00 0.00 77 1010.8
20260508230423 56 248 1.0 3.0 0.00 0.00 0.00 76 1010.9
20260508225931 57 235 0.0 4.0 0.00 0.00 0.00 75 1011.0
20260508225443 57 235 2.0 4.0 0.00 0.00 0.00 74 1011.0
20260508224934 57 210 1.0 3.0 0.00 0.00 0.00 74 1011.0
20260508224426 58 146 1.0 4.0 0.00 0.00 0.00 73 1011.0